Wind_Speed
24 23 21 19 18 18 19 19 18 19 20 22 22 22 22 21 21 20 20 20 20 21 21 21 22 23 24 26 26 27 27 27 26 25 24 23 23 24 24 24 24 24 24 24 24 24 24 24 24 23 22 21 21 20 20 20 20 21 21 21 22 22 23 23 23 23 22 22 21
24 23 21 20 20 20 21 20 20 21 23 23 22 22 21 21 21 20 20 21 21 22 22 22 23 24 25 26 26 26 26 26 26 25 24 24 24 24 24 24 24 24 24 24 25 24 24 25 24 24 22 21 21 21 21 21 21 21 22 22 23 22 22 22 21 21 21 21 21
24 23 22 21 22 23 23 22 23 25 26 24 22 22 21 21 20 20 20 21 22 22 22 23 23 24 24 24 25 26 26 26 25 24 24 24 24 25 25 25 25 25 25 24 25 24 24 25 25 23 22 21 22 22 22 22 21 21 22 22 22 22 21 21 21 20 20 20 20
24 23 23 23 23 23 24 23 25 26 26 24 22 22 21 21 20 20 21 22 22 22 23 23 24 23 23 24 25 26 26 25 24 24 24 25 25 25 25 25 26 25 25 25 25 25 25 25 24 23 22 22 22 22 21 21 22 22 22 22 22 22 21 21 21 21 20 20 20
25 24 23 23 24 24 24 25 26 26 25 24 22 22 22 21 21 21 22 22 22 23 24 24 23 23 23 24 26 26 26 25 24 24 25 25 25 25 26 26 26 26 25 25 25 25 25 25 24 23 22 22 22 21 21 22 22 22 23 23 22 22 22 22 21 21 21 21 21
25 25 25 25 25 25 26 26 27 26 25 23 23 23 24 23 23 23 23 23 23 24 24 23 22 23 24 26 26 26 26 25 25 25 25 25 26 26 26 26 26 26 26 25 25 25 25 25 24 23 22 21 22 22 21 21 22 23 23 24 23 23 23 23 23 23 22 22 22
26 26 26 26 26 27 27 27 27 27 25 23 24 24 25 25 24 24 25 24 23 23 23 22 23 24 26 26 26 25 25 25 25 25 25 25 26 26 27 27 27 26 26 26 26 25 25 25 24 23 22 21 21 21 22 22 23 24 25 25 25 24 24 24 24 23 23 23 23
27 27 27 27 27 27 28 28 27 26 25 24 24 25 25 25 24 24 25 24 22 22 22 23 24 25 26 26 25 25 25 25 25 26 26 26 26 27 27 27 27 27 26 26 26 26 26 26 24 22 21 21 21 22 23 25 26 26 27 27 27 26 25 24 24 24 23 23 24
28 28 28 28 28 28 28 28 27 26 24 24 24 25 25 24 23 24 24 23 22 23 24 24 25 25 26 26 25 25 25 25 25 26 26 26 26 27 27 28 28 27 27 26 26 27 27 26 24 23 22 21 22 24 26 27 28 28 28 27 26 26 25 25 25 24 24 24 24
29 29 29 29 29 29 28 28 27 25 24 24 24 25 25 23 23 24 23 22 23 24 24 25 25 25 26 25 25 25 25 25 26 26 26 26 26 27 28 28 28 27 27 26 27 27 28 26 25 24 23 23 24 26 28 28 28 28 27 26 26 27 28 27 27 25 24 24 24
30 30 29 29 29 29 29 28 26 24 23 23 24 25 25 24 24 24 23 23 24 25 25 25 25 25 25 25 25 25 25 25 25 26 26 26 26 27 27 27 28 27 27 27 28 28 28 26 26 26 27 26 27 27 27 27 27 27 28 28 29 29 29 28 27 25 23 22 21
30 30 30 29 29 29 28 27 25 23 23 23 24 24 24 24 24 23 23 23 24 25 25 25 25 25 24 24 25 25 25 25 25 25 26 26 26 26 27 27 27 27 27 28 29 29 28 27 27 29 30 30 28 27 26 27 27 28 29 29 30 30 29 29 26 23 20 19 19
29 29 30 29 29 28 27 26 24 22 22 23 24 24 24 24 23 23 23 24 24 24 25 25 24 24 24 24 25 25 25 26 26 25 25 25 26 26 26 26 27 27 28 29 30 30 29 29 29 30 31 32 31 29 28 28 28 29 29 30 30 30 30 29 26 22 18 17 16
29 29 29 29 28 27 26 25 23 21 22 23 23 24 24 23 23 23 24 24 24 24 24 24 24 24 24 24 25 25 25 26 26 26 26 25 26 26 26 27 28 29 30 30 31 31 31 31 31 31 31 32 33 32 32 31 30 30 30 30 31 31 30 28 24 19 15 13 13
28 28 28 27 27 26 25 23 22 21 22 23 23 24 23 23 23 23 23 23 24 23 23 24 25 25 25 25 25 25 26 26 26 26 26 26 26 27 27 28 30 31 31 32 32 32 32 32 31 31 31 32 33 34 34 33 33 32 31 32 31 30 28 24 18 13 11 11 12
28 28 27 26 26 25 24 23 22 22 22 23 23 24 23 23 23 23 23 23 24 24 24 25 25 25 25 25 25 26 26 26 27 27 27 27 28 29 30 30 31 32 32 32 32 33 32 32 32 31 31 32 32 33 33 34 34 33 32 31 29 27 22 16 11 8 8 10 12
27 27 26 25 25 25 24 23 23 23 23 23 24 24 23 23 23 23 23 23 24 25 26 27 26 26 26 27 27 27 27 27 27 28 28 29 30 31 31 32 31 32 32 32 32 33 33 33 32 32 31 31 31 32 33 34 34 34 32 29 25 20 15 12 9 8 9 10 12
26 26 25 25 24 24 24 24 23 23 24 24 24 24 23 24 24 24 25 25 25 26 27 28 27 27 27 28 28 28 28 28 28 29 30 31 31 32 32 32 32 31 31 32 32 33 34 33 33 32 31 31 31 33 34 35 35 33 30 26 20 15 12 12 10 10 10 11 12
25 25 25 24 24 24 24 24 24 24 24 24 24 24 24 25 25 26 26 27 26 26 28 28 28 28 29 29 29 30 29 29 30 31 32 32 32 32 32 32 32 31 31 31 32 32 33 32 32 31 31 31 32 34 36 36 35 31 26 19 14 12 12 12 11 10 10 10 11
25 25 25 24 24 24 24 24 24 24 24 24 24 25 25 26 26 27 27 28 27 27 28 29 29 30 30 30 31 31 31 30 30 31 32 33 32 32 32 31 31 31 31 31 31 32 32 32 31 30 31 32 35 37 37 35 31 24 17 12 11 12 12 11 10 9 8 8 9
25 25 25 24 24 24 24 24 24 24 24 24 25 25 26 26 27 27 28 28 28 29 29 29 30 30 31 31 31 32 32 31 32 32 33 33 33 32 32 31 31 31 31 31 31 31 31 31 30 31 32 35 37 36 33 27 21 15 12 12 12 12 11 10 9 9 8 8 8
25 25 24 24 24 24 24 24 24 24 24 25 25 26 26 27 27 27 28 29 29 30 30 30 30 30 30 31 31 32 32 33 33 34 34 34 33 33 32 31 30 30 31 31 31 31 31 31 31 33 36 36 32 26 20 15 12 12 13 13 12 11 10 9 9 10 10 11 11
24 24 24 24 24 24 24 24 24 25 25 25 26 27 27 27 27 28 29 29 30 31 31 30 30 30 30 30 31 32 33 34 35 35 35 35 34 33 32 31 30 30 30 30 30 30 30 32 34 35 32 25 16 11 10 11 12 14 15 14 12 11 10 10 11 13 14 16 17
25 25 25 24 25 25 25 25 25 25 25 26 27 27 28 28 28 29 30 30 31 32 31 31 30 30 30 30 31 32 34 34 35 35 36 36 35 34 33 31 30 29 29 29 28 29 30 33 35 29 18 13 13 14 14 15 16 16 16 15 13 12 11 12 15 18 20 21 21
25 25 25 25 25 25 25 25 25 25 26 26 27 28 28 28 29 29 30 31 32 32 32 31 31 30 30 30 31 33 34 34 34 35 35 36 36 35 33 31 30 29 29 29 29 30 32 34 29 19 16 18 18 17 18 18 18 18 17 16 15 14 14 16 19 21 21 21 20
25 25 26 26 25 25 25 25 25 25 26 27 28 28 29 29 29 30 31 32 32 33 32 31 30 30 29 30 31 33 34 34 34 34 34 35 35 34 33 31 30 30 30 30 31 32 32 27 19 18 20 20 20 20 20 19 19 19 20 19 18 17 17 18 20 21 20 19 19
26 26 26 26 26 26 26 25 25 25 26 27 28 29 29 29 29 30 31 32 33 33 32 31 30 29 29 30 31 33 34 33 33 33 33 33 33 33 32 31 32 32 33 33 31 28 23 19 20 21 21 23 23 22 21 20 20 21 23 23 22 20 19 19 20 20 19 18 18
26 26 26 26 26 26 26 26 26 26 26 27 28 28 29 29 30 31 32 32 33 32 31 30 30 29 30 30 31 32 33 33 32 31 32 33 33 32 32 32 34 35 34 30 24 21 23 24 23 22 22 23 24 24 22 21 22 24 26 26 25 23 21 20 20 20 19 18 18
26 26 26 26 26 26 26 26 26 26 26 27 27 28 28 29 30 31 32 33 33 32 31 30 30 30 30 31 31 32 32 32 31 30 31 32 32 32 32 34 35 37 34 29 26 27 27 26 24 23 23 23 24 25 24 24 25 26 27 27 26 24 23 22 21 21 20 19 18
27 26 26 26 26 26 26 26 26 26 26 26 27 27 28 29 30 31 32 32 32 31 31 31 31 31 31 31 31 31 31 31 30 30 30 31 31 32 33 34 36 36 33 32 30 28 28 26 25 24 23 23 24 25 26 26 27 27 27 27 27 26 25 23 22 21 20 19 18
27 27 26 26 27 26 26 26 26 26 26 26 26 27 28 29 30 31 31 31 31 31 31 32 31 31 31 31 31 30 30 30 30 30 30 31 30 31 33 35 35 34 32 33 30 28 28 27 25 24 24 24 24 26 27 27 27 27 26 26 26 27 27 26 24 22 21 21 19
27 27 27 27 26 26 25 25 25 25 26 26 26 27 27 28 29 30 31 31 31 31 32 32 31 31 31 31 31 30 29 29 29 29 29 30 30 31 33 34 35 34 33 34 30 29 30 29 27 26 24 24 25 26 27 26 26 26 26 25 26 27 29 29 28 25 23 23 24
27 27 26 26 26 25 25 25 25 25 26 26 26 26 27 28 30 31 31 30 30 30 31 30 30 30 30 31 30 29 28 28 28 29 29 30 30 30 32 33 34 35 35 36 31 31 32 31 30 28 26 25 26 27 27 26 26 26 26 26 27 29 30 32 32 30 27 25 27
27 26 26 25 25 24 24 24 25 25 25 26 26 27 28 29 30 31 31 30 30 30 30 29 29 29 30 30 29 28 27 27 27 28 29 30 29 30 31 33 34 35 36 38 33 32 32 33 32 30 28 26 27 27 27 26 26 27 28 28 30 31 32 34 34 33 30 27 27
26 26 25 25 24 24 24 24 24 25 25 26 26 27 28 29 30 30 30 29 29 29 29 28 28 29 29 29 29 27 27 27 27 28 28 29 29 30 32 33 35 36 37 39 34 32 32 33 33 32 31 29 28 28 27 26 26 27 29 30 31 32 33 34 34 34 31 28 27
26 25 25 24 23 23 24 24 24 25 25 26 27 28 28 29 29 30 29 28 29 29 28 27 28 28 29 29 28 27 27 27 27 27 28 28 29 30 32 34 36 36 37 40 36 33 31 33 33 34 33 32 30 28 26 25 25 26 28 30 31 31 32 32 33 33 32 29 27
25 25 24 23 22 23 23 24 24 25 26 26 27 28 28 29 29 29 29 28 28 28 27 26 27 27 28 27 26 26 26 26 26 27 28 28 29 30 32 33 35 36 37 39 38 34 31 31 32 34 35 34 31 28 26 25 24 25 26 27 29 30 30 30 31 32 32 31 28
25 24 23 22 22 23 24 24 25 25 26 26 27 28 28 28 28 28 28 27 27 26 25 25 26 26 26 25 24 25 25 26 26 27 28 29 29 29 31 32 34 35 36 38 38 35 32 30 31 32 34 35 32 28 25 24 24 24 24 24 26 27 28 29 29 30 31 31 29
24 24 23 22 22 23 24 25 25 25 26 27 27 28 28 28 27 28 27 26 26 25 24 23 24 25 24 23 23 23 24 25 25 26 27 28 28 29 29 31 32 33 35 36 37 36 34 31 29 30 32 34 32 29 26 25 24 24 23 23 23 24 25 26 26 28 29 30 28
23 23 22 22 23 24 25 26 26 26 26 27 27 27 27 27 27 27 27 26 25 24 23 22 23 23 23 22 22 23 23 23 24 25 26 27 28 28 28 30 30 32 33 34 35 35 34 32 29 29 30 32 31 29 27 25 25 25 24 23 22 22 22 23 24 25 27 29 27
23 23 22 22 24 25 26 26 26 27 27 27 27 27 26 27 27 27 27 26 25 24 22 22 22 21 21 21 21 21 22 22 23 24 25 26 28 28 29 29 28 29 31 32 33 34 34 33 31 28 28 29 29 28 27 26 25 25 25 24 23 21 21 21 21 23 25 27 26
Wind_Direction
347 348 348 346 344 341 340 338 336 335 334 333 331 330 329 327 326 325 324 324 324 323 322 321 321 320 321 323 324 325 325 326 326 326 326 325 325 325 325 325 324 324 322 321 321 321 320 319 317 315 312 309 306 304 302 300 298 297 296 296 295 296 297 297 297 297 297 297 298
347 348 348 347 345 344 342 339 337 336 336 334 333 331 330 328 327 325 324 324 323 323 322 321 321 320 321 323 324 324 324 325 325 325 325 325 325 324 324 324 324 323 322 321 321 320 319 318 316 313 311 308 306 304 302 300 299 297 297 297 296 297 297 296 295 295 296 297 297
349 349 350 349 348 347 345 340 338 338 337 336 334 332 331 330 328 327 325 324 323 323 322 322 321 321 322 323 324 324 324 323 323 323 323 324 324 324 324 323 323 323 322 321 321 319 317 316 315 312 310 308 306 304 302 302 301 299 298 299 298 297 297 296 295 295 295 295 295
353 353 353 352 351 349 346 342 340 339 338 336 335 334 333 332 331 328 327 326 325 325 324 323 323 323 323 323 324 324 324 323 322 322 322 322 323 323 323 323 322 322 322 321 320 319 318 316 314 312 309 307 306 303 302 303 303 301 299 300 299 297 295 295 295 294 293 293 293
357 357 356 355 353 351 349 346 343 341 339 338 337 336 336 335 333 331 330 329 327 327 326 327 326 325 325 325 325 325 325 324 322 322 322 322 322 322 322 322 322 321 321 321 320 319 318 317 314 312 309 307 305 304 303 303 303 302 300 300 299 297 295 294 293 291 290 290 290
357 358 358 357 355 353 350 348 345 343 341 340 339 339 338 337 335 334 332 330 328 328 329 329 328 327 327 327 327 326 325 325 323 322 322 322 322 322 321 321 320 320 320 320 320 319 319 318 315 312 309 308 306 304 304 304 304 302 301 300 299 297 295 293 291 290 288 288 287
357 357 357 356 354 352 350 348 346 345 343 342 341 341 340 339 337 335 334 332 330 330 331 330 329 329 328 328 328 327 326 325 324 324 323 323 322 322 321 320 320 319 319 320 320 320 319 318 315 312 310 308 307 305 305 305 304 303 301 300 299 297 294 291 290 289 287 286 286
356 356 355 353 352 350 348 347 346 345 343 342 341 341 341 340 337 335 334 333 331 331 331 330 329 329 329 329 328 328 327 326 326 326 325 324 323 322 321 320 319 319 319 319 319 319 319 317 313 311 309 308 307 306 305 305 304 302 300 299 298 296 294 291 290 288 287 286 286
354 354 353 351 350 348 347 345 345 344 343 342 341 341 341 339 336 334 334 332 332 331 331 329 329 330 330 330 329 329 329 328 328 327 326 325 324 322 322 321 320 319 319 320 319 319 318 315 312 310 308 306 305 305 304 304 303 302 300 299 297 296 295 293 291 289 287 285 284
351 351 350 349 347 346 345 344 343 342 341 340 341 341 339 337 335 335 333 331 331 331 330 330 331 331 331 331 331 330 330 329 329 328 327 326 324 323 322 322 321 320 320 320 319 318 317 314 311 309 307 306 304 304 303 303 303 302 300 299 298 297 297 295 293 290 287 285 283
350 349 348 346 345 344 344 343 342 341 340 340 339 339 338 336 336 335 333 332 332 331 332 332 333 333 332 332 331 331 330 329 328 327 327 326 325 324 323 322 321 321 320 319 318 317 315 313 311 309 308 307 306 305 304 303 303 302 301 300 300 299 298 298 296 293 288 285 283
348 347 347 346 345 344 344 342 341 340 340 340 339 338 338 337 336 334 334 334 335 335 335 336 335 334 333 332 331 331 330 329 328 327 326 325 325 324 323 322 322 320 319 318 317 316 314 312 311 310 310 309 308 306 304 304 304 304 303 302 302 301 300 299 299 296 291 287 285
348 347 347 346 346 345 344 342 341 340 340 340 339 338 337 336 337 337 338 338 339 338 337 337 337 335 334 332 332 330 329 329 328 327 326 325 324 324 323 322 320 319 317 317 317 316 314 312 311 311 311 311 309 308 306 306 305 305 305 305 305 304 302 301 300 296 292 289 288
348 348 348 347 347 346 344 343 342 341 341 340 339 339 339 339 340 342 342 341 340 339 338 337 337 337 335 333 332 330 329 329 328 328 327 325 324 323 322 320 319 318 317 317 317 316 314 312 312 312 311 311 310 310 309 309 308 307 307 307 307 306 305 302 298 294 291 292 293
350 350 349 348 348 347 346 345 344 343 342 341 341 341 342 342 343 344 343 342 341 340 339 338 337 337 335 334 332 331 330 329 329 328 327 325 324 323 321 320 319 319 319 318 318 316 315 313 312 312 311 310 310 311 312 312 312 311 310 310 309 309 308 306 302 298 296 299 300
351 351 351 349 349 349 348 347 346 344 343 342 343 344 344 344 345 345 344 343 342 341 340 340 338 336 335 334 333 332 331 330 329 328 326 325 324 323 322 321 320 320 320 319 318 317 316 314 313 312 311 310 310 310 310 312 313 313 313 313 311 312 316 324 327 322 315 311 304
352 352 351 351 351 351 350 349 347 346 345 345 346 346 346 346 346 346 345 343 342 341 340 339 338 336 334 333 333 331 330 328 327 327 327 326 325 324 322 322 321 321 320 319 318 317 316 316 315 314 312 310 309 308 308 309 310 311 311 311 309 314 329 350 355 345 328 316 305
353 353 353 353 352 352 351 350 349 348 347 348 348 348 347 347 347 346 345 344 342 340 338 338 337 335 333 332 331 330 329 327 326 326 327 326 325 324 323 322 322 322 321 319 318 317 316 316 316 316 314 312 310 308 308 307 307 308 307 306 307 319 340 354 352 342 330 322 315
354 354 354 354 353 353 352 352 351 350 349 349 349 349 348 348 347 346 345 345 343 341 338 337 336 335 334 332 331 331 330 328 327 327 327 326 325 324 323 322 322 322 321 320 318 317 317 317 318 317 316 313 311 309 307 307 306 305 304 305 315 334 347 350 346 339 331 327 325
356 356 355 354 353 353 353 353 352 352 351 350 350 349 349 348 347 346 345 344 343 341 339 337 337 336 335 334 333 333 332 329 328 327 326 326 325 324 323 322 322 322 322 321 320 319 319 320 320 319 317 313 309 307 306 305 304 304 309 322 340 350 352 350 346 343 342 341 340
357 357 355 355 354 353 353 353 353 352 351 351 350 349 348 347 347 345 344 343 342 341 339 338 337 336 335 335 335 334 332 331 329 328 326 326 325 324 324 323 323 323 323 322 321 321 322 323 322 319 315 310 306 304 303 303 305 315 333 350 356 355 353 350 352 358 4 10 11
358 356 355 355 354 354 353 353 353 352 351 350 350 349 349 347 346 345 344 343 342 341 340 339 338 338 337 336 335 334 333 333 332 330 329 328 327 327 327 326 326 325 324 323 323 323 324 323 320 315 310 307 306 306 309 314 329 347 358 2 1 357 353 353 4 15 25 31 33
357 356 355 355 355 355 354 354 354 353 352 350 349 349 349 348 347 345 344 344 343 342 342 341 340 339 339 337 336 335 335 335 334 334 333 332 331 330 330 330 329 327 326 323 322 322 321 318 314 311 312 316 327 345 2 8 9 9 9 8 6 1 358 2 18 32 42 47 48
358 357 356 356 356 356 355 355 354 353 353 351 350 349 349 348 347 346 345 344 344 344 343 342 342 341 340 338 337 337 337 337 337 336 336 336 335 334 334 333 332 330 327 325 323 320 317 314 314 321 340 18 39 41 35 28 22 18 16 15 13 8 8 19 39 52 58 58 55
357 357 357 357 356 356 356 355 354 353 352 351 351 350 349 349 347 346 345 345 345 345 344 343 342 342 340 339 339 339 340 340 339 338 338 338 338 338 337 335 333 331 328 326 323 320 317 316 326 354 41 56 50 42 36 32 27 24 23 22 20 17 22 38 54 62 64 62 58
358 358 358 358 357 356 355 354 353 353 352 351 351 351 350 349 348 347 347 346 345 345 344 343 343 342 341 340 340 341 342 342 342 341 340 339 339 340 339 337 335 332 329 325 321 320 321 328 359 40 57 51 44 39 35 31 27 27 28 28 27 27 34 47 56 63 66 64 60
359 358 357 357 356 354 353 353 353 352 351 352 351 351 350 350 349 349 348 346 345 344 344 343 343 343 342 341 342 343 344 344 344 343 342 342 341 341 341 339 336 332 328 325 324 329 344 14 44 54 51 44 42 38 33 29 27 28 31 32 31 33 38 46 52 57 61 63 61
358 357 356 355 354 352 352 352 352 352 352 352 352 351 351 351 351 350 349 347 346 344 344 343 344 344 344 343 344 345 345 346 346 345 344 344 345 344 343 340 337 333 332 336 348 10 31 45 51 49 43 41 39 37 33 30 30 31 32 33 32 33 36 41 47 51 54 58 59
357 356 354 353 352 351 351 351 352 352 353 353 353 352 352 352 352 351 349 347 345 344 344 344 344 345 345 345 346 347 347 348 347 347 346 347 348 348 346 343 339 339 348 10 31 40 40 41 42 41 40 38 37 36 34 32 32 32 32 31 31 31 33 38 43 46 48 52 56
357 354 352 351 351 351 351 352 353 354 354 354 354 353 352 351 351 350 348 346 344 344 344 344 345 345 346 347 348 349 349 349 350 349 350 350 350 350 349 347 344 347 2 28 42 41 35 36 36 37 36 35 35 35 35 34 34 32 30 29 28 29 32 37 40 43 44 46 51
355 353 351 351 351 352 353 354 355 356 356 355 354 353 352 351 350 349 348 346 345 344 345 346 346 347 348 349 351 351 351 351 352 352 353 353 352 352 352 350 349 354 8 29 41 41 36 36 35 34 33 33 34 35 35 35 33 31 28 26 26 28 31 34 36 38 38 38 41
354 353 353 353 353 354 355 356 357 357 357 356 354 353 351 350 350 349 348 347 346 346 347 348 348 349 350 351 352 353 353 354 354 355 355 355 355 355 355 354 353 358 13 31 43 43 38 36 35 33 33 33 33 34 34 33 31 28 26 24 25 27 29 31 32 34 35 35 33
354 353 354 355 355 356 357 358 358 358 357 356 354 352 351 350 350 350 349 349 348 348 348 349 350 350 351 352 353 354 355 355 356 357 358 359 359 359 359 358 356 360 13 31 45 45 39 36 35 33 32 33 34 34 33 31 29 26 24 23 24 26 28 29 31 33 36 36 33
354 354 355 356 357 358 359 359 359 358 357 355 353 352 351 350 350 350 350 350 349 350 351 352 352 353 353 354 355 355 356 357 359 1 2 3 2 2 2 1 359 1 11 28 44 46 40 36 34 33 32 33 35 34 32 30 28 25 24 23 24 26 27 29 31 33 36 38 36
354 355 356 358 359 0 0 360 359 358 356 354 352 351 351 351 351 351 351 350 351 351 353 354 355 356 356 356 358 358 359 360 1 3 5 5 5 6 6 6 3 2 9 23 40 47 42 37 34 32 32 34 35 34 31 28 27 25 25 25 25 26 27 29 30 31 33 36 39
355 355 356 357 360 1 1 360 358 356 355 353 351 351 350 351 351 352 352 352 352 353 355 356 357 358 358 358 359 1 2 2 3 5 7 8 9 9 9 9 7 4 7 19 34 44 45 39 35 32 31 33 35 34 32 28 26 25 26 26 26 26 26 26 27 28 28 29 34
357 357 357 358 360 1 0 359 357 355 353 351 350 350 350 350 351 352 353 353 353 354 355 357 358 358 358 358 359 2 5 6 7 8 10 11 12 12 11 11 9 5 6 15 28 39 44 41 38 34 32 32 33 33 32 29 27 25 25 25 25 24 24 24 24 25 24 23 26
358 358 359 359 360 360 359 357 355 353 351 350 350 350 350 350 350 351 352 353 354 354 355 356 357 359 359 359 1 5 9 12 12 12 12 14 15 14 13 12 10 7 7 13 22 31 39 41 40 37 34 31 31 32 31 30 28 27 25 24 23 23 23 23 22 22 23 21 20
359 359 359 359 359 358 357 355 354 352 351 350 349 350 350 350 350 351 353 354 354 355 355 356 357 359 1 2 4 8 12 16 17 16 15 16 17 17 15 13 11 9 8 11 18 25 33 38 40 39 36 33 31 31 30 30 29 28 26 24 22 22 21 21 20 20 21 21 18
360 359 359 359 358 357 355 355 354 353 352 351 350 350 350 349 350 352 353 355 356 356 356 357 358 1 3 4 7 10 13 17 20 20 19 18 19 19 17 15 13 11 11 12 16 22 28 34 38 39 38 35 33 32 31 30 29 28 27 24 22 21 20 20 19 19 19 20 19
360 359 358 358 357 356 355 355 354 354 353 352 351 350 350 350 352 353 355 356 357 357 357 358 360 2 4 7 9 11 14 18 21 23 22 21 21 21 19 16 14 13 13 14 16 19 24 29 34 37 39 37 35 33 32 31 30 28 26 24 22 21 19 18 18 18 18 17 16
Height
884 883 882 881 880 878 877 876 874 873 872 870 868 867 865 864 862 861 859 858 856 855 853 851 850 848 846 845 844 842 841 839 838 837 836 834 833 831 830 828 827 825 824 822 821 819 818 816 815 813 812 810 808 807 806 805 803 802 800 800 798 797 796 795 794 792 791 790 790
884 882 881 880 879 878 876 875 874 872 871 870 868 866 865 863 862 860 859 857 856 855 853 851 849 847 846 844 843 842 840 839 837 836 835 833 832 831 829 827 826 824 823 821 820 818 817 815 814 812 810 809 807 805 804 803 802 800 799 798 797 796 795 793 792 791 790 789 788
883 882 881 879 878 877 876 874 873 871 870 869 867 866 865 863 861 860 858 857 856 854 852 851 849 847 845 844 842 841 840 838 837 835 834 832 831 829 828 826 825 823 822 821 819 817 816 814 812 810 809 807 805 804 803 801 800 800 798 797 796 795 793 792 791 790 789 788 787
882 881 880 879 878 877 876 874 873 871 870 868 867 866 864 863 861 860 858 856 855 853 851 850 848 846 845 843 842 841 839 838 836 835 833 831 830 828 827 826 824 822 821 819 818 816 815 813 811 810 808 806 804 803 801 800 799 798 797 796 795 793 792 791 789 788 787 786 785
882 881 880 879 878 876 875 874 872 871 869 868 866 865 863 862 861 859 857 856 854 852 851 849 848 846 845 843 841 840 838 837 836 834 832 831 829 827 826 824 823 821 820 818 817 815 814 812 810 808 806 805 803 802 800 799 798 797 796 795 793 792 790 789 788 787 786 785 784
882 881 880 879 877 876 875 873 872 870 869 867 866 864 863 861 860 859 857 856 854 852 850 849 847 846 844 842 841 839 837 836 835 833 831 830 828 826 825 823 822 820 819 817 816 814 812 811 809 807 805 804 802 800 799 798 797 796 794 793 792 790 789 788 786 785 784 783 782
882 881 879 878 877 875 874 872 871 870 868 866 865 864 862 861 859 858 856 855 853 851 850 848 847 845 843 842 840 838 837 835 834 832 831 829 827 826 824 822 821 819 817 816 814 813 811 810 808 806 804 802 801 799 798 797 796 795 793 791 790 789 787 786 784 783 782 781 780
882 881 879 878 876 875 873 872 871 869 867 866 865 863 861 860 859 857 856 854 852 851 850 848 846 845 843 841 840 838 836 835 833 831 830 828 826 825 823 821 819 818 816 815 813 811 810 809 807 805 803 801 800 798 796 795 794 793 791 790 788 786 785 784 782 781 780 780 779
881 880 879 877 876 875 873 871 870 868 867 865 864 863 861 860 859 857 855 854 852 851 849 847 846 844 842 841 839 837 836 834 832 831 829 827 826 824 822 820 818 816 815 813 812 810 809 807 805 804 802 801 799 797 795 794 792 791 789 788 786 784 783 782 780 780 779 778 777
881 880 878 876 875 874 872 871 869 868 866 865 863 862 861 860 858 856 855 853 852 850 848 847 845 844 842 840 839 837 835 834 832 830 828 826 825 823 821 819 817 816 814 812 810 809 807 805 803 802 800 799 798 796 794 792 791 789 787 786 784 782 780 779 778 778 777 776 775
881 879 878 876 875 873 872 870 869 867 866 864 863 862 860 859 857 856 854 853 851 850 848 846 845 843 841 840 838 836 835 833 831 830 827 826 824 822 821 818 816 815 813 811 809 807 805 803 801 800 798 797 796 794 792 790 789 787 785 784 782 780 778 777 776 775 775 774 773
881 879 878 876 875 873 871 870 868 866 865 864 863 861 860 858 857 856 854 852 851 849 848 846 845 843 841 839 838 836 834 832 831 829 827 825 823 821 820 818 816 814 812 810 808 806 804 802 800 798 796 794 793 792 790 789 787 785 783 781 780 778 776 775 774 773 773 772 771
881 879 877 876 874 872 871 869 868 866 865 864 862 861 860 858 856 855 854 852 851 849 847 846 844 842 841 839 837 836 834 832 830 828 826 824 822 821 819 817 815 813 810 808 806 804 802 800 798 796 794 792 790 789 788 787 785 784 781 779 777 776 774 773 772 771 771 771 770
880 878 877 875 874 872 871 869 868 866 865 864 862 861 859 858 856 855 853 852 850 849 847 845 844 842 841 839 837 835 833 831 829 827 825 823 821 819 817 816 813 811 809 807 805 803 801 799 797 795 793 790 788 786 785 784 783 781 780 778 775 774 772 771 770 770 770 770 769
880 878 876 875 873 872 871 869 868 866 865 863 862 861 859 858 856 855 853 852 850 848 847 845 843 841 840 838 836 834 832 830 828 826 824 822 820 818 816 814 812 810 807 805 803 801 799 797 796 794 792 790 787 784 783 781 780 779 778 776 774 772 771 770 769 769 769 769 768
879 878 876 875 873 872 871 869 868 866 865 863 862 861 859 857 856 855 853 851 850 848 846 845 843 841 839 837 835 833 831 829 827 825 823 821 819 817 815 813 810 808 806 804 801 799 797 795 794 793 791 789 786 784 781 780 779 777 776 774 773 772 771 770 769 769 768 767 766
879 878 876 875 873 872 871 869 868 866 865 863 862 861 859 857 856 855 853 851 850 848 846 844 842 840 838 836 834 832 830 828 826 824 822 820 818 816 813 811 809 807 805 802 800 797 795 793 792 791 789 787 785 783 780 779 777 776 775 773 772 772 771 770 769 768 767 766 765
879 878 876 875 873 872 871 869 868 866 865 863 862 861 859 857 856 854 853 851 849 847 845 843 841 839 837 835 833 831 829 827 825 823 821 819 816 814 812 810 808 805 803 801 798 796 794 792 790 788 787 785 783 781 779 777 776 775 773 773 772 771 770 769 768 767 766 765 764
880 878 876 875 874 872 871 869 868 866 865 864 862 861 859 857 856 854 852 850 848 846 844 842 840 838 836 834 832 830 828 826 824 822 820 817 815 813 810 808 806 804 802 800 797 795 792 790 788 786 785 783 781 779 777 775 774 773 772 772 771 770 769 768 767 766 765 764 763
880 878 877 875 874 872 871 870 868 867 865 864 862 861 859 857 855 853 851 849 848 846 844 842 840 837 835 833 831 829 827 825 823 821 818 816 814 811 809 807 805 802 800 798 795 793 791 789 787 785 783 781 779 777 775 773 772 772 772 771 770 769 768 767 766 765 764 763 763
880 878 877 876 874 873 871 870 868 867 865 864 862 860 858 856 855 853 851 849 847 845 843 841 839 837 835 832 830 828 826 824 822 820 817 815 812 810 808 805 803 801 799 796 794 791 789 787 785 783 781 779 776 774 773 772 772 772 771 770 769 768 767 766 765 764 763 763 762
880 879 877 876 875 873 871 870 869 867 865 864 862 860 858 856 854 852 850 848 846 845 843 841 839 836 834 832 830 828 826 823 821 819 816 813 811 809 806 804 802 800 797 795 792 790 787 785 783 781 778 775 774 772 772 772 772 771 770 768 767 766 766 765 764 764 763 762 762
881 879 878 876 875 873 872 870 868 867 865 863 861 860 858 856 854 852 850 848 846 844 842 840 838 836 834 832 830 828 825 823 820 817 815 812 810 808 805 803 801 799 796 793 791 789 786 784 781 778 776 774 773 772 772 772 771 770 769 768 767 766 765 764 763 763 762 762 761
881 879 878 876 875 873 871 870 868 866 865 863 861 859 857 856 853 851 849 847 846 844 842 840 838 836 834 831 830 827 825 822 820 817 814 811 809 807 805 802 800 798 795 792 790 788 786 783 780 777 775 774 773 773 772 771 770 770 768 767 766 765 765 764 763 763 763 762 762
881 879 877 876 874 873 871 870 868 866 865 863 861 859 857 855 853 851 849 847 845 843 841 839 837 835 833 831 829 827 825 822 820 817 814 811 809 806 804 802 799 797 794 791 789 787 785 782 779 777 775 774 774 773 772 771 770 770 769 767 766 765 764 764 764 764 763 763 763
880 879 877 876 874 873 871 869 868 866 865 863 861 859 857 855 853 851 849 847 845 843 841 839 837 835 833 831 829 826 824 822 820 817 814 811 808 806 804 801 799 796 793 790 788 786 783 781 779 777 776 775 774 773 773 772 771 770 769 767 766 765 765 765 765 765 765 764 764
880 878 877 876 874 872 871 870 868 866 865 863 861 859 857 855 853 851 849 847 845 843 841 839 837 835 833 831 829 826 824 822 820 817 815 812 809 806 804 801 798 795 792 789 787 785 782 780 779 778 777 776 775 774 773 773 771 770 769 768 767 766 766 766 766 766 765 765 765
880 878 877 876 874 872 871 869 868 866 864 863 861 859 857 855 853 851 849 847 845 842 841 839 837 835 833 831 829 827 825 822 820 817 815 812 810 807 804 801 797 794 791 788 785 783 781 780 780 780 779 778 776 775 774 773 772 771 770 769 768 768 767 767 767 766 766 766 765
880 878 877 875 874 872 871 869 867 866 865 863 861 859 857 855 853 851 849 847 845 842 841 839 837 835 833 831 829 827 825 823 821 818 816 813 810 808 805 801 797 794 791 789 785 783 783 782 782 781 780 779 778 776 775 775 774 772 771 771 770 769 768 768 767 767 767 766 766
880 878 877 875 874 872 871 869 868 866 865 863 861 859 857 855 853 851 849 847 845 843 841 840 837 835 833 831 830 828 826 823 821 819 816 814 811 809 805 802 798 795 793 790 788 786 785 784 784 783 782 781 779 778 777 776 775 775 774 773 772 771 770 769 768 768 768 767 767
880 878 877 875 874 872 871 869 868 866 865 863 861 859 857 856 853 851 849 847 845 843 841 839 837 835 833 831 830 828 826 824 822 820 817 815 812 810 806 803 799 797 795 792 790 789 788 787 786 785 784 782 781 780 779 778 778 777 776 775 774 772 771 770 769 769 769 768 768
879 878 877 875 874 872 871 869 868 866 865 863 861 859 857 856 854 852 850 848 846 843 841 839 837 835 833 831 830 828 826 825 822 821 818 816 813 811 808 804 800 799 797 794 792 791 790 789 788 787 785 784 783 781 781 780 780 779 778 777 775 774 772 771 770 770 769 770 769
879 878 877 875 874 872 871 869 868 866 865 863 861 860 858 856 854 852 850 848 846 844 842 840 838 836 834 832 831 829 827 826 823 821 819 817 815 812 809 805 802 800 799 795 794 792 792 791 790 789 787 786 784 783 782 782 781 780 779 777 776 775 773 772 772 771 771 771 770
879 878 877 875 874 872 871 870 868 866 865 863 861 860 858 856 854 852 850 848 846 845 843 841 839 837 835 833 831 830 828 826 824 822 820 818 816 813 810 807 804 802 800 797 795 794 793 792 791 790 789 787 786 785 784 783 782 781 780 778 777 775 775 774 773 773 773 773 772
879 878 876 875 874 873 871 870 868 866 865 863 861 860 858 856 854 852 851 849 847 845 843 842 840 838 836 834 832 830 829 827 825 823 821 819 817 814 812 809 806 803 801 798 796 795 795 794 793 792 790 789 788 786 785 785 784 783 781 780 778 777 776 775 775 775 774 775 775
879 878 877 875 874 873 871 870 868 866 865 863 861 860 858 856 855 853 851 849 847 846 844 842 840 838 836 834 832 831 829 827 826 824 822 820 818 816 813 810 807 805 802 800 798 797 796 796 795 794 792 790 789 788 787 786 785 785 783 782 781 780 778 777 777 776 775 775 776
879 878 877 876 874 873 872 870 868 867 865 863 862 860 858 856 855 853 851 850 848 846 844 843 841 839 837 836 834 832 830 828 827 825 823 821 819 817 815 812 809 806 804 802 800 798 798 797 797 796 794 792 791 790 790 789 788 787 785 784 783 782 781 780 779 778 777 776 776
880 878 877 876 875 873 872 870 869 867 865 864 862 860 859 857 855 854 852 851 849 847 845 844 842 840 839 837 835 833 831 830 828 826 824 822 821 819 816 814 811 809 806 804 802 800 800 799 799 798 796 795 793 792 792 791 790 789 788 787 786 785 784 783 782 780 779 778 778
880 878 877 876 875 873 872 870 869 867 866 864 862 860 859 857 856 854 852 851 849 848 846 845 843 841 840 838 836 834 832 831 829 827 826 824 822 821 819 816 814 812 809 807 805 803 802 800 800 800 799 797 796 795 794 793 792 791 790 789 788 787 786 785 785 783 782 780 780
880 879 877 876 875 873 871 870 869 867 866 864 862 861 859 857 856 854 853 851 850 848 847 845 844 842 841 839 837 835 833 831 830 828 827 826 824 822 821 818 816 815 812 810 808 806 804 803 802 801 800 800 799 797 796 795 794 793 792 791 790 790 789 788 787 786 784 783 782
880 879 877 876 875 873 871 870 868 867 866 864 862 861 859 858 856 854 852 851 850 848 847 846 844 843 841 840 838 836 834 832 831 830 828 827 825 824 822 820 819 817 815 813 810 808 806 805 804 803 802 801 800 800 799 797 796 795 794 793 792 791 790 790 788 787 786 785 784